Houston Hull, TX

10:06 PM CST on December 06, 2019 (GMT -0600)
Sugar Land Municipal-Hull

Weather History for KSGR - October, 2019

Change the Weather History Date:

Thursday, October 10, 2019

  Actual Average Record
Temperature  
Mean Temperature 82 °F -  
Max Temperature 91 °F 82 °F 93 °F (1962)
Min Temperature 73 °F 60 °F 44 °F (1976)
Cooling Degree Days 16    
Growing Degree Days 32 (Base 50)    
Moisture  
Dew Point 74 °F    
Average Humidity 77    
Maximum Humidity 93    
Minimum Humidity 55    
Precipitation  
Precipitation 0.00 in - - ()
Sea Level Pressure  
Sea Level Pressure 29.88 in    
Wind  
Wind Speed 10 mph (SSE)    
Max Wind Speed 17 mph    
Max Gust Speed 22 mph    
Visibility 10 miles    
Events      
Averages and records for this station are not official NWS values.
T = Trace of Precipitation, MM = Missing Value Source: NWS Daily Summary

Daily Weather History Graph

Daily Weather History Graph

Search for Another Location

Airport or City:

Astronomy

Oct. 10, 2019 Rise Set
Actual Time 7:21 AM CDT 6:57 PM CDT
Civil Twilight 6:57 AM CDT 7:21 PM CDT
Nautical Twilight 6:29 AM CDT 7:49 PM CDT
Astronomical Twilight 6:01 AM CDT 8:16 PM CDT
Moon 5:41 PM CDT (10/10) 4:26 AM CDT (10/10)
Length of Visible Light 12h 24m
Length of Day
11h 36m
Waxing Gibbous, 91% of the Moon is Illuminated
Oct 10
Waxing Gibbous
Oct 13
Full
Oct 21
Last Quarter
Oct 27
New
Nov 4
First Quarter

Hourly Weather History & Observations

Time (CDT) Temp. Heat Index Dew Point Humidity Pressure Visibility Wind Dir Wind Speed Gust Speed Precip Events Conditions
12:53 AM 77.0 °F - 73.0 °F 88% 29.91 in 10.0 mi SSE 9.2 mph - N/A   Partly Cloudy
1:53 AM 77.0 °F - 73.0 °F 88% 29.90 in 10.0 mi SE 10.4 mph - N/A   Clear
2:53 AM 75.9 °F - 72.0 °F 87% 29.90 in 10.0 mi SE 9.2 mph - N/A   Clear
3:53 AM 75.9 °F - 72.0 °F 87% 29.89 in 10.0 mi SSE 6.9 mph - N/A   Clear
4:53 AM 75.0 °F - 72.0 °F 90% 29.89 in 10.0 mi SSE 5.8 mph - N/A   Clear
5:53 AM 75.0 °F - 72.0 °F 90% 29.90 in 10.0 mi SSE 5.8 mph - N/A   Scattered Clouds
6:53 AM 73.9 °F - 72.0 °F 93% 29.91 in 10.0 mi SSE 3.5 mph - N/A   Clear
7:53 AM 75.9 °F - 73.0 °F 91% 29.91 in 10.0 mi SE 5.8 mph - N/A   Clear
8:53 AM 80.1 °F 84.5 °F 73.9 °F 81% 29.92 in 10.0 mi South 9.2 mph - N/A   Clear
9:53 AM 84.0 °F 91.2 °F 73.9 °F 72% 29.93 in 10.0 mi South 15.0 mph - N/A   Clear
10:53 AM 87.1 °F 95.4 °F 73.9 °F 65% 29.92 in 10.0 mi South 15.0 mph - N/A   Scattered Clouds
11:53 AM 89.1 °F 96.0 °F 72.0 °F 57% 29.92 in 10.0 mi South 15.0 mph - N/A   Partly Cloudy
12:53 PM 90.0 °F 96.9 °F 72.0 °F 55% 29.89 in 10.0 mi South 15.0 mph 21.9 mph N/A   Partly Cloudy
1:53 PM 90.0 °F 97.9 °F 73.0 °F 57% 29.86 in 10.0 mi South 15.0 mph - N/A   Partly Cloudy
2:53 PM 90.0 °F 99.0 °F 73.9 °F 59% 29.84 in 10.0 mi SSE 16.1 mph - N/A   Partly Cloudy
3:53 PM 89.1 °F 98.0 °F 73.9 °F 61% 29.83 in 10.0 mi SSE 16.1 mph - N/A   Partly Cloudy
4:53 PM 90.0 °F 100.2 °F 75.0 °F 61% 29.82 in 10.0 mi SSE 17.3 mph - N/A   Mostly Cloudy
5:53 PM 84.9 °F 92.1 °F 73.9 °F 69% 29.83 in 10.0 mi SSE 16.1 mph - N/A   Clear
6:07 PM 84.9 °F 92.1 °F 73.9 °F 69% 29.82 in 10.0 mi SE 15.0 mph - N/A   Clear
6:53 PM 84.0 °F 91.9 °F 75.0 °F 74% 29.83 in 10.0 mi SSE 16.1 mph 21.9 mph N/A   Clear
7:53 PM 82.0 °F 88.6 °F 75.0 °F 79% 29.84 in 10.0 mi SSE 10.4 mph - N/A   Clear
8:53 PM 81.0 °F 87.3 °F 75.9 °F 85% 29.85 in 10.0 mi SSE 10.4 mph - N/A   Clear
9:53 PM 80.1 °F 85.4 °F 75.9 °F 87% 29.86 in 10.0 mi SSE 10.4 mph - N/A   Clear
10:53 PM 80.1 °F 85.4 °F 75.9 °F 87% 29.86 in 10.0 mi SE 9.2 mph - N/A   Clear
11:53 PM 79.0 °F - 75.9 °F 90% 29.86 in 10.0 mi SSE 8.1 mph - N/A   Clear